Location: Bredestraat
(51.1088°N, 3.6207°E)
Time: 22:30:02
(UTC+00:00)

Daily predictions for brighter satellites

Satellite Brightness Start Highest point End
(mag) Time Altitude Azimuth Time Altitude Azimuth Time Altitude Azimuth
SL-08 ROCKET BODY 4.4 16:06:57 10° N 16:12:54 69° ENE 16:18:57 10° SSE
Cosmos 1607 4.2 16:06:58 10° NW 16:13:12 79° SW 16:19:29 10° SSE
ARIANE 5 R/B 3.2 16:09:47 10° ESE 16:14:12 31° ENE 16:18:42 10° N
Cosmos 2279 Rocket 4.1 16:08:11 10° S 16:14:19 64° E 16:20:30 10° NNE
Cosmos 1825 Rocket 4.4 16:13:09 10° N 16:16:56 28° ENE 16:20:41 10° SE
Iridium 51 3.8 16:15:04 10° S 16:18:14 84° W 16:21:28 10° N
Cosmos 1758 Rocket 3.5 16:17:06 10° N 16:21:26 87° ENE 16:25:43 10° S
Lacrosse 4 Rocket 3.1 16:20:31 10° W 16:23:47 23° NW 16:27:02 10° NNE
Cosmos 2098 Rocket 3.4 16:19:34 10° S 16:23:55 60° E 16:29:01 10° NNE
USA 290 3.0 16:21:50 10° NNW 16:25:03 57° WSW 16:28:15 10° S
Cosmos 1782 2.5 16:23:16 10° S 16:26:51 76° E 16:30:27 10° NNE
Cosmos 1933 4.2 16:24:01 10° SSE 16:27:16 27° E 16:30:31 10° NNE
Cosmos 2227 Rocket 2.2 16:23:27 10° NNW 16:29:06 64° ENE 16:34:42 10° SE
Meteor 1-28 Rocket 3.4 16:26:28 10° NNE 16:29:40 40° E 16:32:49 10° S
Cosmos 2369 Rocket 4.1 16:28:35 10° W 16:32:45 20° NW 16:36:57 10° NNE
CBERS-1 4.0 16:27:55 10° SSE 16:33:02 82° ENE 16:38:10 10° NNW
SPOT 1/Viking Rocket 4.5 16:33:51 10° ESE 16:38:06 26° ENE 16:42:22 10° N
SJ-12 4.4 16:36:08 10° SE 16:39:32 33° ENE 16:42:57 10° N
CENTAUR R/B 3.4 16:35:19 10° W 16:41:10 44° NNW 16:48:30 10° NE
Cosmos 2180 Rocket 4.5 16:35:12 10° S 16:41:18 72° E 16:47:27 10° NNE
Cosmos 1697 Rocket 3.0 16:36:36 10° S 16:41:57 49° ESE 16:47:21 10° NE
Cosmos 2360 4.3 16:37:48 10° SSW 16:43:33 87° NW 16:49:19 10° NNE
CZ-2D R/B 3.4 16:42:00 10° SE 16:44:50 32° ENE 16:47:42 10° N
Cosmos 1538 Rocket 4.3 16:40:03 10° NNW 16:45:07 44° ENE 16:50:12 10° SE
NOSS 2-3 (C) 4.5 16:43:06 10° S 16:45:49 21° ESE 16:47:48 14° ENE
NOSS 3 (A) 4.3 16:44:05 10° NNW 16:46:17 47° NE 16:49:04 10° ESE
Cosmos 2266 Rocket 3.9 16:42:18 10° N 16:48:29 79° E 16:54:32 10° SSE
Cosmos 1656 4.2 16:45:48 10° SW 16:51:23 62° NW 16:57:04 10° NNE
Cosmos 2228 4.5 16:48:23 10° SW 16:52:19 36° WNW 16:56:16 10° N
Cosmos 1606 Rocket 3.8 16:48:55 10° SSE 16:53:09 48° E 16:57:26 10° NNE
Cosmos 1503 Rocket 4.0 16:50:15 10° SSW 16:55:29 83° ESE 17:00:42 10° NNE
Lacrosse 5 rocket 2.1 16:53:17 10° WNW 16:56:40 32° N 16:58:51 18° NE
UNK 3.8 16:54:02 10° NNE 16:58:34 58° ESE 17:03:03 10° S
CZ-4C R/B 3.6 16:52:09 10° NW 16:58:58 60° SW 17:07:24 10° SSE
Cosmos 1484 Rocket 3.8 16:56:48 10° S 17:00:10 43° W 17:03:31 10° NNW
Cosmos 1743 3.9 16:57:54 10° NNW 17:00:57 37° W 17:03:57 10° SSW
Radarsat 4.5 16:56:01 10° SSE 17:01:12 79° ENE 17:06:24 10° NNW
Thor Agena Rocket 3.7 16:56:09 10° SSE 17:01:21 81° WSW 17:06:31 10° NNW
Cosmos 1544 Rocket 4.5 16:58:20 10° SSW 17:02:38 50° WNW 17:06:58 10° N
IRS-P3 4.2 16:58:52 10° SE 17:04:02 54° ENE 17:09:13 10° N
NOSS 2-3 (D) 3.8 17:01:34 10° SSW 17:05:01 39° SE 17:07:03 21° ENE
NOSS 2-3 (E) 3.6 17:02:11 10° SSW 17:05:39 42° SE 17:07:43 22° ENE
Cosmos 1354 Rocket 4.0 17:01:15 10° SSW 17:06:30 74° ESE 17:11:39 11° NNE
IGS 5A 4.3 17:03:47 10° S 17:07:38 50° W 17:11:32 10° NNW
Resurs 1-3 4.5 17:04:38 10° ESE 17:08:11 26° ENE 17:11:45 10° N
NOSS 2-2 (D) 4.2 17:05:31 10° W 17:08:14 27° NW 17:10:10 15° NNE
Cosmos 1777 Rocket 4.3 17:03:31 10° SSW 17:08:45 69° WNW 17:14:00 10° NNE
Cosmos 2151 3.9 17:05:00 10° NNW 17:09:02 50° W 17:13:04 10° S
Cosmos-2242 4.0 17:06:37 10° SE 17:10:06 25° E 17:11:24 21° ENE
USA 238 DEB 4.0 17:04:46 10° S 17:10:27 42° ESE 17:14:48 19° ENE
USA 238 4.0 17:04:54 10° S 17:10:34 42° ESE 17:14:54 19° ENE
MOS 1 Rocket 3.5 17:06:00 10° SSE 17:10:57 64° ENE 17:16:11 10° N
Cosmos 1898 Rocket 4.3 17:10:00 10° SSE 17:14:22 29° E 17:16:31 21° ENE
Gbstr 26 Del rocket 3.0 17:10:29 10° SW 17:14:29 56° SSE 17:16:29 25° E
Cosmos 1726 Rocket 3.7 17:11:07 10° S 17:15:41 61° E 17:20:11 10° NNE
USA 215 3.6 17:12:07 18° ENE 17:16:56 54° N 17:23:17 10° W
ERS-1 4.3 17:12:04 10° SSE 17:17:03 77° ENE 17:22:01 10° NNW
Cosmos 2082 3.8 17:12:00 10° NNW 17:17:36 52° NE 17:23:11 10° SE
AQUARIUS 4.0 17:14:09 10° SSE 17:18:32 74° ENE 17:22:58 10° N
SMAP 3.5 17:15:16 10° S 17:19:54 66° WSW 17:24:34 10° NNW
Cosmos 1805 3.5 17:17:03 10° N 17:20:08 32° ENE 17:23:12 10° SE
Cosmos 2297 Rocket 4.4 17:16:17 10° NW 17:21:05 29° WSW 17:25:51 10° SSW
GEOS 3 Rocket 3.8 17:19:10 20° NE 17:22:54 63° SE 17:28:13 10° SSW
Landsat 7 3.9 17:19:22 10° S 17:24:01 76° WSW 17:28:42 10° NNW
Cosmos 923 Rocket 4.2 17:21:39 10° NNW 17:26:38 44° ENE 17:31:35 10° SE
YAOGAN 1 3.0 17:22:51 10° SE 17:26:47 37° ENE 17:30:44 10° N
Cosmos 1937 Rocket 4.3 17:25:31 10° SSE 17:29:55 29° E 17:30:51 27° E
SL-16 R/B 4.2 17:28:53 10° SE 17:29:26 11° ESE 17:29:26 11° ESE
Cosmos 990 Rocket 4.0 17:28:46 10° SSW 17:33:54 80° WNW 17:38:14 15° NNE
Cosmos 1461 3.8 17:30:33 10° WSW 17:34:15 39° NW 17:36:23 21° NNE
SL-16 R/B 3.3 17:28:32 10° N 17:34:32 50° WNW 17:40:28 10° SW
CZ-2D R/B 3.5 17:30:48 10° SE 17:34:50 51° ENE 17:38:50 10° N
Cosmos 1244 Rocket 4.5 17:30:11 10° N 17:36:24 58° ENE 17:42:30 10° SSE
SKYMED 2 3.9 17:35:15 31° NE 17:36:50 43° E 17:40:58 10° S
COSMOS 2455 4.0 17:33:56 10° SSE 17:38:31 23° ESE 17:38:36 23° ESE
Meteor 2-2 Rocket 4.4 17:33:33 10° SSE 17:38:53 47° E 17:42:46 18° NNE
Okean 1 4.0 17:35:59 10° SSE 17:38:20 30° SE 17:38:20 30° SE
Cosmos 1844 Rocket 3.2 17:39:22 10° NNW 17:44:37 37° NE 17:45:49 33° ENE
Cosmos 2219 3.2 17:39:02 10° NNW 17:44:49 89° ENE 17:50:35 10° SSE
Cosmos 1980 Rocket 2.1 17:40:40 10° SSW 17:46:16 69° ESE 17:49:21 28° NE
Cosmos 1953 Rocket 3.9 17:42:33 10° NNW 17:46:59 69° W 17:51:24 10° S
SL-08 R/B 4.5 17:41:21 10° N 17:47:37 60° ENE 17:53:51 10° SSE
Aureole 1 Rocket 3.4 17:43:33 10° SSW 17:48:13 71° ESE 17:51:47 24° NNE
Meteor 1-26 Rocket 4.1 17:44:13 10° S 17:49:28 56° E 17:52:48 22° NNE
PSLV R/B 3.4 17:49:59 42° ESE 17:50:56 53° ENE 17:54:54 10° N
Cosmos 2263 Rocket 2.8 17:47:21 10° NW 17:52:56 59° WSW 17:58:29 10° S
ARIANE 5 R/B 3.6 17:48:11 10° S 17:53:05 47° W 17:58:04 10° NNW
SL-19 R/B 4.2 17:48:29 10° SSE 17:53:53 64° ENE 17:59:36 10° NNW
NOSS 3-2 (A) 4.5 17:52:10 10° W 17:57:14 34° NNW 18:00:32 22° NNE
BREEZE-M DEB (TANK) 4.1 17:54:49 10° SSW 17:57:14 21° S 17:57:14 21° S
COSMO-SKYMED 1 3.1 17:59:08 38° SE 17:59:08 38° SE 18:02:07 10° S
Cosmos 1680 Rocket 3.5 17:53:12 10° NNW 17:58:22 57° ENE 18:00:24 35° ESE
BREEZE-M DEB (TANK) 4.2 17:55:55 10° W 17:59:34 65° S 18:06:53 20° ESE
NOSS 3-2 (C) 3.9 17:54:49 10° WSW 17:59:59 49° NNW 18:03:20 25° NNE
NOAA 15 4.5 17:55:57 10° SSE 18:01:15 85° ENE 18:06:34 10° NNW
Meteor 2-10 4.3 17:56:27 10° NNW 18:01:50 73° W 18:07:23 10° S
NOAA 6 3.9 17:58:11 10° SSE 18:03:12 61° ENE 18:08:14 10° N
Cosmos 2369 3.8 17:58:23 10° S 18:03:57 56° ESE 18:05:20 45° ENE
Cosmos 1943 Rocket 4.3 18:03:00 10° N 18:04:10 11° NNE 18:04:10 11° NNE
Resurs 01 Rocket 3.9 18:11:53 13° N 18:11:53 13° N 18:12:20 10° N
USA 81 4.4 18:05:43 10° N 18:10:57 67° W 18:16:10 10° S
Cosmos 44 Rocket 3.4 18:06:39 10° NW 18:11:42 56° NE 18:11:53 56° NE
Cosmos 2227 Rocket 4.4 18:08:07 10° NW 18:12:42 26° WSW 18:17:17 10° SSW
SPOT 1/Viking Rocket 4.1 18:11:59 10° S 18:17:07 58° W 18:22:17 10° NNW
Cosmos 2058 Rocket 3.6 18:20:05 10° SSW 18:24:29 59° WNW 18:26:26 31° N
Cosmos 1697 Rocket 3.9 18:20:54 10° WSW 18:26:05 37° NW 18:29:16 21° N
USA 281 4.3 18:28:12 26° NNE 18:28:12 26° NNE 18:32:18 10° NNW
CENTAUR R/B 3.9 18:27:30 10° WNW 18:33:40 32° N 18:35:36 29° NNE
Cosmos 2333 Rocket 4.3 18:28:52 10° SSE 18:29:35 13° SSE 18:29:35 13° SSE
Meteor 2-11 Rocket 4.4 18:27:43 10° NNW 18:33:56 83° W 18:40:04 10° S
Lacrosse 5 rocket 3.0 18:30:45 10° NW 18:32:26 23° NW 18:32:26 23° NW
Cosmos 2278 Rocket 4.3 18:31:26 10° N 18:32:43 13° N 18:32:43 13° N
NOSS 2-3 (C) 4.5 18:32:21 10° WSW 18:34:53 36° WNW 18:34:53 36° WNW
Meteor 1-14 Rocket 4.1 18:32:21 10° NNW 18:38:10 84° ENE 18:39:09 62° SSE
Cosmos-2242 4.3 18:43:00 10° SW 18:46:57 38° WNW 18:47:46 34° NW
Cosmos 1844 3.9 18:50:01 10° NNW 18:54:37 61° NNW 18:54:37 61° NNW
Cosmos 1898 Rocket 4.2 18:51:08 10° SW 18:56:08 49° WNW 18:56:45 46° NW
USA 215 3.3 18:59:28 64° NNE 18:59:31 64° NNE 19:05:59 10° WNW
Cosmos 2112 Rocket 4.4 18:54:54 10° NNW 18:59:47 59° W 18:59:47 59° W
USA 238 DEB 3.9 18:55:01 10° WSW 19:01:11 58° NW 19:02:15 52° N
USA 238 3.9 18:55:06 10° WSW 19:01:18 59° NW 19:02:21 53° N
BREEZE-M DEB (TANK) 4.3 19:02:12 10° SW 19:06:16 35° SSW 19:06:16 35° SSW
Cosmos 1937 Rocket 4.4 19:06:34 10° SW 19:10:57 46° W 19:10:57 46° W
SL-16 R/B 3.8 19:09:11 10° SSW 19:11:20 24° SSW 19:11:20 24° SSW
Cosmos 1745 Rocket 4.4 19:09:51 10° NNW 19:15:55 59° W 19:21:54 10° S
COSMOS 2455 3.7 19:17:45 10° SW 19:21:46 44° SW 19:21:46 44° SW
Cosmos 1844 Rocket 3.7 19:23:14 10° NW 19:27:31 43° WNW 19:27:31 43° WNW
Cosmos 1980 Rocket 3.7 19:25:52 10° WSW 19:30:45 29° NW 19:31:07 29° NW
CENTAUR R/B 4.4 20:18:54 10° NW 20:22:41 30° NNW 20:22:41 30° NNW
